Location: Newark
(34.1333°N, 7.9667°W)
Time: 11:25:57
(UTC+00:00)

Envisat - Pass Details

Date: 05 October 2021
Orbit: 764 x 766 km, 98.2° (Epoch: 20 October)

Event Time Altitude Azimuth Distance (km) Brightness Sun altitude
Rises 04:28:59 0° 33° (NNE) 3,233 6.9 -25.6°
Reaches altitude 10° 04:32:05 10° 53° (NE) 2,302 6.3 -25.0°
Maximum altitude 04:35:23 17° 93° (E) 1,844 5.8 -24.3°
Drops below altitude 10° 04:38:39 10° 134° (SE) 2,292 5.9 -23.6°
Sets 04:41:43 0° 154° (SSE) 3,213 6.4 -23.0°
